User: anonymous   Login
Location: Caltech
(34.1382°N, 118.1253°W)
Time: 08:21:24
(UTC-07:00)
Language:

AO-Echo - Orbit

View from above orbital plane
View from above orbital plane
View from above satellite
View from above satellite

Ground track
Ground track

The orbit data is extracted from the following two-line orbital elements,

1 28375U 04025K   15208.07893741  .00000027  00000-0  21186-4 0  9992
2 28375 098.2938 147.3822 0082024 208.3567 151.3147 14.41681447582232
Epoch (UTC): 27 July 2015 01:53:40
Eccentricity: 0.0082024
inclination: 98.2938°
perigee height: 694 km
apogee height: 811 km
right ascension of ascending node: 147.3822°
argument of perigee: 208.3567°
revolutions per day: 14.41681447
mean anomaly at epoch: 151.3147°
orbit number at epoch: 58223

The dashed part of the orbit path shows where the satellite is in the earth's shadow,  

DLR